Hourly Weather Bolshie Zhuhovichi

Today, 3 August, Tuesday

Time Temperature Precipitation Wind Pressure Humidity
00:00 +13°C° 0 mm 3 mps 742 mmHg 94%
01:00 +12°C° 0 mm 3 mps 743 mmHg 94%
02:00 +12°C° 0 mm 3 mps 743 mmHg 94%
03:00 +12°C° 0 mm 3 mps 743 mmHg 94%
04:00 +12°C° 0 mm 3 mps 743 mmHg 94%
05:00 +12°C° 0 mm 3 mps 743 mmHg 94%
06:00 +13°C° 0 mm 3 mps 743 mmHg 91%
07:00 +14°C° 0 mm 3 mps 744 mmHg 87%
08:00 +16°C° 0 mm 3 mps 744 mmHg 84%
09:00 +17°C° 0 mm 4 mps 744 mmHg 76%
10:00 +19°C° 0 mm 5 mps 745 mmHg 69%
11:00 +20°C° 0 mm 5 mps 745 mmHg 61%
12:00 +21°C° 0.1 mm 5 mps 745 mmHg 58%
13:00 +21°C° 0.1 mm 5 mps 745 mmHg 55%
14:00 +22°C° 0.1 mm 5 mps 745 mmHg 52%
15:00 +21°C° 0.1 mm 5 mps 745 mmHg 55%
16:00 +21°C° 0.1 mm 5 mps 745 mmHg 59%
17:00 +21°C° 0.1 mm 4 mps 745 mmHg 63%
18:00 +19°C° 0.1 mm 4 mps 745 mmHg 69%
19:00 +17°C° 0.1 mm 3 mps 745 mmHg 76%
20:00 +16°C° 0.1 mm 3 mps 746 mmHg 83%
21:00 +15°C° 0 mm 2 mps 746 mmHg 85%
22:00 +14°C° 0 mm 2 mps 746 mmHg 87%
23:00 +14°C° 0 mm 2 mps 746 mmHg 89%

Tomorrow, 4 August, Wednesday

Time Temperature Precipitation Wind Pressure Humidity
00:00 +13°C° 0 mm 2 mps 746 mmHg 90%
01:00 +13°C° 0 mm 2 mps 747 mmHg 90%
02:00 +13°C° 0 mm 2 mps 747 mmHg 91%
03:00 +13°C° 0 mm 2 mps 747 mmHg 89%
04:00 +13°C° 0 mm 2 mps 747 mmHg 87%
05:00 +14°C° 0 mm 2 mps 747 mmHg 86%
06:00 +15°C° 0 mm 2 mps 747 mmHg 83%
07:00 +16°C° 0 mm 2 mps 747 mmHg 79%
08:00 +16°C° 0 mm 2 mps 747 mmHg 76%
09:00 +18°C° 0 mm 2 mps 747 mmHg 72%
10:00 +19°C° 0 mm 2 mps 748 mmHg 68%
11:00 +20°C° 0 mm 3 mps 748 mmHg 64%
12:00 +21°C° 0.1 mm 2 mps 747 mmHg 62%
13:00 +21°C° 0.1 mm 2 mps 747 mmHg 60%
14:00 +23°C° 0.1 mm 2 mps 747 mmHg 58%
15:00 +23°C° 0.4 mm 2 mps 746 mmHg 62%
16:00 +21°C° 0.4 mm 2 mps 746 mmHg 67%
17:00 +20°C° 0.4 mm 2 mps 746 mmHg 72%
18:00 +19°C° 2.6 mm 2 mps 746 mmHg 80%
19:00 +18°C° 2.6 mm 2 mps 746 mmHg 88%
20:00 +16°C° 2.6 mm 2 mps 746 mmHg 96%
21:00 +16°C° 1.6 mm 2 mps 746 mmHg 97%
22:00 +16°C° 1.6 mm 2 mps 746 mmHg 97%
23:00 +16°C° 1.6 mm 2 mps 745 mmHg 98%

Day after tomorrow, 5 August, Thursday

Time Temperature Precipitation Wind Pressure Humidity
00:00 +16°C° 0.1 mm 2 mps 745 mmHg 98%
01:00 +16°C° 0.1 mm 1 mps 745 mmHg 98%
02:00 +16°C° 0.1 mm 1 mps 745 mmHg 98%
03:00 +15°C° 0 mm 1 mps 745 mmHg 97%
04:00 +15°C° 0 mm 1 mps 745 mmHg 97%
05:00 +15°C° 0 mm 1 mps 745 mmHg 97%
06:00 +16°C° 0 mm 2 mps 744 mmHg 93%
07:00 +17°C° 0 mm 2 mps 744 mmHg 90%
08:00 +17°C° 0 mm 2 mps 744 mmHg 87%
09:00 +18°C° 0 mm 2 mps 744 mmHg 82%
10:00 +19°C° 0 mm 2 mps 744 mmHg 78%
11:00 +20°C° 0 mm 2 mps 744 mmHg 73%
12:00 +21°C° 0 mm 2 mps 744 mmHg 71%
13:00 +21°C° 0 mm 2 mps 744 mmHg 68%
14:00 +23°C° 0 mm 2 mps 744 mmHg 66%
15:00 +21°C° 0 mm 2 mps 743 mmHg 68%
16:00 +21°C° 0 mm 3 mps 743 mmHg 70%
17:00 +21°C° 0 mm 3 mps 743 mmHg 72%
18:00 +20°C° 0 mm 4 mps 743 mmHg 76%
19:00 +19°C° 0 mm 4 mps 742 mmHg 81%
20:00 +17°C° 0 mm 5 mps 742 mmHg 85%
21:00 +16°C° 0 mm 5 mps 742 mmHg 86%
22:00 +16°C° 0 mm 5 mps 741 mmHg 87%
23:00 +15°C° 0 mm 5 mps 741 mmHg 88%

6 August, Friday

Time Temperature Precipitation Wind Pressure Humidity
00:00 +15°C° 0.2 mm 6 mps 740 mmHg 90%
01:00 +15°C° 0.2 mm 6 mps 739 mmHg 92%
02:00 +15°C° 0.2 mm 6 mps 738 mmHg 94%
03:00 +15°C° 3.7 mm 6 mps 737 mmHg 95%
04:00 +15°C° 3.7 mm 6 mps 736 mmHg 97%
05:00 +15°C° 3.7 mm 7 mps 736 mmHg 98%
06:00 +16°C° 1 mm 6 mps 736 mmHg 96%
07:00 +17°C° 1 mm 5 mps 735 mmHg 95%
08:00 +19°C° 1 mm 5 mps 735 mmHg 94%
09:00 +19°C° 0.7 mm 5 mps 735 mmHg 93%
10:00 +19°C° 0.7 mm 5 mps 735 mmHg 93%
11:00 +19°C° 0.7 mm 6 mps 735 mmHg 92%
12:00 +19°C° 0.5 mm 6 mps 735 mmHg 91%
13:00 +19°C° 0.5 mm 6 mps 735 mmHg 91%
14:00 +20°C° 0.5 mm 6 mps 735 mmHg 90%
15:00 +19°C° 0.1 mm 6 mps 735 mmHg 90%
16:00 +17°C° 0.1 mm 7 mps 736 mmHg 90%
17:00 +16°C° 0.1 mm 7 mps 736 mmHg 90%
18:00 +16°C° 0 mm 6 mps 736 mmHg 90%
19:00 +16°C° 0 mm 6 mps 737 mmHg 90%
20:00 +15°C° 0 mm 5 mps 737 mmHg 90%
21:00 +15°C° 0 mm 5 mps 737 mmHg 91%
22:00 +15°C° 0 mm 4 mps 738 mmHg 91%
23:00 +14°C° 0 mm 4 mps 738 mmHg 92%

7 August, Saturday

Time Temperature Precipitation Wind Pressure Humidity
00:00 +14°C° 0 mm 4 mps 738 mmHg 92%
01:00 +14°C° 0 mm 4 mps 738 mmHg 93%
02:00 +14°C° 0 mm 4 mps 738 mmHg 93%
03:00 +14°C° 0 mm 3 mps 739 mmHg 94%
04:00 +14°C° 0 mm 3 mps 739 mmHg 94%
05:00 +14°C° 0 mm 3 mps 739 mmHg 94%
06:00 +16°C° 0.1 mm 3 mps 739 mmHg 94%
07:00 +16°C° 0.1 mm 3 mps 739 mmHg 94%
08:00 +16°C° 0.1 mm 3 mps 740 mmHg 94%
09:00 +16°C° 0 mm 3 mps 740 mmHg 93%
10:00 +17°C° 0 mm 4 mps 740 mmHg 91%
11:00 +17°C° 0 mm 4 mps 741 mmHg 90%
12:00 +18°C° 0 mm 4 mps 741 mmHg 87%
13:00 +18°C° 0 mm 3 mps 741 mmHg 85%
14:00 +18°C° 0 mm 3 mps 742 mmHg 82%
15:00 +18°C° 0 mm 3 mps 742 mmHg 84%
16:00 +18°C° 0 mm 3 mps 742 mmHg 85%
17:00 +18°C° 0 mm 2 mps 742 mmHg 86%
18:00 +18°C° 0 mm 2 mps 743 mmHg 88%
19:00 +17°C° 0 mm 2 mps 743 mmHg 90%
20:00 +17°C° 0 mm 2 mps 743 mmHg 92%
21:00 +16°C° 0 mm 2 mps 743 mmHg 93%
22:00 +16°C° 0 mm 2 mps 744 mmHg 93%
23:00 +15°C° 0 mm 2 mps 744 mmHg 94%

8 August, Sunday

Time Temperature Precipitation Wind Pressure Humidity
00:00 +15°C° 0 mm 2 mps 744 mmHg 94%
01:00 +15°C° 0 mm 2 mps 744 mmHg 94%
02:00 +14°C° 0 mm 2 mps 745 mmHg 94%
03:00 +14°C° 0 mm 2 mps 745 mmHg 93%
04:00 +14°C° 0 mm 2 mps 745 mmHg 92%
05:00 +14°C° 0 mm 2 mps 745 mmHg 91%
06:00 +16°C° 0 mm 2 mps 745 mmHg 85%
07:00 +18°C° 0 mm 2 mps 746 mmHg 79%
08:00 +19°C° 0 mm 2 mps 746 mmHg 73%
09:00 +21°C° 0 mm 2 mps 746 mmHg 68%
10:00 +24°C° 0 mm 2 mps 747 mmHg 64%
11:00 +25°C° 0 mm 3 mps 747 mmHg 59%
12:00 +26°C° 0 mm 3 mps 747 mmHg 57%
13:00 +27°C° 0 mm 3 mps 747 mmHg 55%
14:00 +27°C° 0 mm 3 mps 747 mmHg 52%
15:00 +27°C° 0 mm 2 mps 747 mmHg 54%
16:00 +27°C° 0 mm 2 mps 748 mmHg 56%
17:00 +27°C° 0 mm 1 mps 748 mmHg 58%
18:00 +25°C° 0 mm 1 mps 748 mmHg 63%
19:00 +24°C° 0 mm 1 mps 748 mmHg 69%
20:00 +22°C° 0 mm 1 mps 748 mmHg 74%
21:00 +21°C° 0 mm 1 mps 748 mmHg 75%
22:00 +21°C° 0 mm 1 mps 748 mmHg 77%
23:00 +19°C° 0 mm 2 mps 748 mmHg 78%
Show more

We Need Your Consent

Meteoprog and our Service Providers may store and access personal data such as cookies, device identifiers or other similar technologies on your device and process such data to personalise content and ads, as well as provide social media features and to analyse the traffic.

  • Store and/or access information on your device

    Cookies, device identifiers or other information can be stored or accessed on your device for the purposes indicated above.

  • Personalised ads and content, ad and content measurement, audience insights, and products development

    Ads and content can be personalised based on a profile. More data can be added to better personalise ads and content. Ad and content performance can be measured. Insights about the audience who saw the ads and content can be derived. Such data can be used to develop or improve user’s experience, systems and software.

By clicking ‘I Agree’ you will allow the use of indicated cookies, device identifiers, web beacons or other similar technologies. Your settings can be changed in the browser on your device.

For certain purposes, legitimate interests may be relied on, rather than consent. You can read more about this in our Privacy and Cookie Policy.